This is the latest recevied weather packets stored in our database for station/object VU3HGG-WX. If no packets are shown the sender has not sent any weather packets the latest 10 day(s).
| Time | Temp. | Humidity | Pressure | Rain* | Wind** | Luminosity | Snow |
|---|---|---|---|---|---|---|---|
| 1787848649 | 25° C | 79% | 912.1 hPa | - | - | - | - |
| 1787848049 | 25° C | 79% | 912 hPa | - | - | - | - |
| 1787847448 | 25° C | 79% | 911.9 hPa | - | - | - | - |
| 1787846849 | 25° C | 80% | 911.8 hPa | - | - | - | - |
| 1787846248 | 25° C | 80% | 911.7 hPa | - | - | - | - |
| 1787845648 | 26.67° C | 72% | 911.6 hPa | - | - | - | - |
| 1787845313 | 26.67° C | 76% | 911.5 hPa | - | - | - | - |
| 1787844712 | 26.67° C | 77% | 911.4 hPa | - | - | - | - |
| 1787844112 | 26.67° C | 72% | 911.1 hPa | - | - | - | - |
| 1787843850 | 26.67° C | 77% | 911.1 hPa | - | - | - | - |
| 1787843250 | 26.67° C | 72% | 911 hPa | - | - | - | - |
| 1787842782 | 26.11° C | 74% | 910.8 hPa | - | - | - | - |
| 1787842116 | 26.11° C | 73% | 910.6 hPa | - | - | - | - |
| 1787841516 | 26.67° C | 73% | 910.5 hPa | - | - | - | - |
| 1787840915 | 26.67° C | 73% | 910.3 hPa | - | - | - | - |
| 1787840315 | 26.11° C | 73% | 910.2 hPa | - | - | - | - |
| 1787839715 | 26.67° C | 68% | 910 hPa | - | - | - | - |
| 1787839702 | 26.11° C | 68% | 910 hPa | - | - | - | - |
| 1787839316 | 26.67° C | 71% | 909.9 hPa | - | - | - | - |
| 1787838717 | 26.67° C | 72% | 910 hPa | - | - | - | - |
| 1787838117 | 26.67° C | 72% | 909.9 hPa | - | - | - | - |
| 1787837517 | 26.67° C | 68% | 909.8 hPa | - | - | - | - |
| 1787837082 | 26.67° C | 73% | 909.7 hPa | - | - | - | - |
| 1787836481 | 26.67° C | 73% | 909.7 hPa | - | - | - | - |
| 1787835881 | 26.67° C | 73% | 909.5 hPa | - | - | - | - |
* Rain since midnight (hover to see other rain measurements)
** Current wind speed in m/s (hover to see current wind gust speed)